VIASAT-1

Last updated on Sun Jun 21 2026 00:03:05 GMT+0000 (Coordinated Universal Time)

1 37843U 11059A 26170.94145181 -.00000029 00000+0 00000+0 0 9990 2 37843 0.0194 344.2727 0002212 100.0370 47.6617 1.00271358 47355
UTC large
Height (km)
Speed (km/s)
/
Latitude / Longitude
Inclination (degrees)
Orbital Period (minutes)
Azimuth
Elevation
Range (km)
Doppler Factor

Next 0 passes for location: London (51.5072 / 0.1276)

No passes found over London.
VIASAT-1